Regional Weather Roundup
Issued by NWS

Home | Current Version | Previous Version | Text Only | Print | Product List | Glossary Off
Versions: 1 2 3 4 5 6 7 8 9 10 11 12 13 14 15 16 17 18 19 20 21 22 23 24 25 26 27

000
ASUS45 KBOU 251007
RWRCO

WEATHER ROUNDUP FOR COLORADO
NATIONAL WEATHER SERVICE DENVER/BOULDER CO
400 AM MDT WED MAY 25 2016

NOTE: "FAIR" INDICATES FEW OR NO CLOUDS BELOW 12000 FEET WITH NO
SIGNIFICANT WEATHER AND/OR OBSTRUCTIONS TO VISIBILITY.

COZ001>005-013-030-031-251100-
...NORTHWEST COLORADO...

CITY           SKY/WX    TMP DP  RH WIND       PRES   REMARKS
CRAIG          MOCLDY    42  37  82 S10       30.05S
HAYDEN         FAIR      43  34  70 S3        30.07S
MEEKER         MOCLDY    43  35  73 SE7       30.04S
MOUNT WERNER   NOT AVBL
STEAMBOAT SPGS CLOUDY    42  33  70 CALM      30.08R
WALDEN         FAIR      34  27  75 CALM      30.10R
$$

COZ006>008-011-251100-
...WEST CENTRAL VALLEYS...

CITY           SKY/WX    TMP DP  RH WIND       PRES   REMARKS
GRAND JUNCTION FAIR      49  29  46 E3        29.98R
MONTROSE       FAIR      54  18  24 W7        30.05R
EAGLE          FAIR      45  27  49 E3        30.06R
RIFLE          FAIR      53  31  42 S3        30.00R
DELTA          FAIR      56  25  30 SW6       30.01R
NUCLA          FAIR      52  21  30 SW3       30.09R
$$

COZ017>023-064>068-251100-
...SOUTHWEST COLORADO...

CITY           SKY/WX    TMP DP  RH WIND       PRES   REMARKS
DURANGO        FAIR      35  23  61 NE7       30.11R WCI  29
CORTEZ         FAIR      54  21  27 S13       30.07R
PAGOSA SPRINGS FAIR      42  17  37 CALM      30.17R
TELLURIDE      FAIR      45  13  27 W5        30.20S
WOLF CREEK PAS FAIR      28  12  50 SW18      30.32S WCI  16
$$

COZ009-010-012-014-032>034-037-058>063-251100-
...CENTRAL COLORADO...

CITY           SKY/WX    TMP DP  RH WIND       PRES   REMARKS
ASPEN          MOCLDY    45  23  42 CALM      30.05S
BUENA VISTA    FAIR      38  15  38 E5        30.09S
COPPER MTN     NOT AVBL
BERTHOUD PASS  FAIR      27  18  69 W14       30.22S WCI  15
COTTONWOOD PAS FAIR      45   9  23 W15G23    30.16S
GUNNISON       FAIR      37  19  48 NE6       30.11S
KREMMLING      FAIR      39  27  60 E3        30.07S
LEADVILLE      FAIR      37  13  37 SE8       30.14S
MONARCH PASS   FAIR      30  12  47 W24       30.36S WCI  16
SALIDA         FAIR      44  15  30 SW5       30.16R
SUNLIGHT       FAIR      34  27  75 CALM      30.20S
WILKERSON PASS FAIR      34   9  35 SW14G23   30.22R WCI  24
$$

COZ069>075-251100-
...SAN LUIS VALLEY/SANGRE DE CRISTO MOUNTAINS...

CITY           SKY/WX    TMP DP  RH WIND       PRES   REMARKS
ALAMOSA        FAIR      41  16  36 SW5       30.10R
LA VETA PASS   FAIR      39  10  30 S16G29    30.18S
SAGUACHE       FAIR      34  16  47 N5        30.12R WCI  30
$$

COZ035-036-038>040-251100-
...NORTHERN COLORADO FRONT RANGE...

CITY           SKY/WX    TMP DP  RH WIND       PRES   REMARKS
DENVER INTL AP FAIR      48  43  82 CALM      29.94R
DMNS CITY PARK   N/A     51  45  82 W2        29.96R
AURORA         PTCLDY    49  44  83 W5        29.96R
FRONT RANGE AP NOT AVBL
ERIE MUNI ARPT FAIR      44  42  93 CALM      29.94R
BOULDER MUN AP FAIR      50  41  71 SW5       29.94S
CENTENNIAL     FAIR      45  40  82 NW3       29.96R
BROOMFIELD     FAIR      50  41  71 W9        29.97R
FORT COLLINS   FAIR      45  37  76 W5        29.94R
LONGMONT       FAIR      45  40  84 W5        29.96R
$$

COZ041-046-047-076>085-087-088-251100-
...PIKES PEAK/PALMER DIVIDE AND SOUTHERN FOOTHILLS...

CITY           SKY/WX    TMP DP  RH WIND       PRES   REMARKS
COLO. SPRINGS  FAIR      58  11  15 SW18      29.94F
A. F. ACADEMY  FAIR      52  14  22 NW9       29.96R
SCHRIEVER AFB  NOT AVBL
ELLICOTT       FAIR     N/A N/A N/A NW10      29.94R
FALCON         FAIR      54  10  17 W15       29.99R
FORT CARSON    FAIR      61  15  16 W8        29.92S
LIMON          FAIR      48  44  86 NW12      29.91R
MONUMENT HILL  FAIR      46  19  34 NW6       30.01S
TRINIDAD       FAIR      51  16  24 CALM      29.96R
$$

COZ042>045-048>051-090-091-251100-
...NORTHEAST COLORADO...

CITY           SKY/WX    TMP DP  RH WIND       PRES   REMARKS
GREELEY ARPT   FAIR      45  37  76 N8        29.91S
AKRON          CLOUDY    54  52  93 N8        29.90R
BURLINGTON     MOCLDY    56  54  93 W10       29.83R
WRAY           CLOUDY    57  55  94 NE9       29.86R
STERLING       MOCLDY    54  52  94 NE5       29.88R
HOLYOKE        CLOUDY    61  50  67 NE6       29.89R
FORT MORGAN    FAIR      49  44  83 N7        29.89R
$$

COZ086-089-092>099-251100-
...SOUTHEAST COLORADO...

CITY           SKY/WX    TMP DP  RH WIND       PRES   REMARKS
PUEBLO         FAIR      55  23  28 SE5       29.87R
LA JUNTA       FAIR      60  20  21 W14       29.85R
LAMAR          FAIR      44  32  62 SW3       29.82R
SPRINGFIELD      N/A     48  30  49 W12       29.86R
$$




USA.gov is the U.S. government's official web portal to all federal, state and local government web resources and services.